Location: Körbelitz
(52.1802°N, 11.7823°E)
Time: 14:33:57
(UTC+02:00)

Cosmos 1610 Rocket - Pass Details

Date: 08 August 2015
Orbit: 954 x 1001 km, 82.9° (Epoch: 22 October)

Event Time Altitude Azimuth Distance (km) Brightness Sun altitude
Rises 01:27:11 0° 349° (NNW) 3,741 8.9 -21.5°
Reaches altitude 10° 01:29:44 10° 348° (NNW) 2,783 8.0 -21.5°
Maximum altitude 01:36:08 81° 263° (W) 1,011 4.5 -21.4°
Enters shadow 01:38:36 40° 181° (S) 1,418 4.8 -21.4°
